Location: Forst
(46.9333°N, 15.4333°E)
Time: 02:45:44
(UTC+00:00)

STARLINK-1603 - Visible Passes

Search period start: 15 June 2021 00:00
Search period end: 25 June 2021 00:00
Orbit: 546 x 548 km, 53.1° (Epoch: 14 June)

Date Brightness Start Highest point End Pass type
(mag) Time Alt. Az. Time Alt. Az. Time Alt. Az.
15 Jun 5.4 00:30:59 10° W 00:32:26 17° W 00:32:26 17° W visible
15 Jun 5.0 21:04:59 10° WNW 21:08:53 39° NNE 21:12:48 10° E visible
15 Jun 3.4 22:44:33 10° WNW 22:48:42 80° SSW 22:49:49 47° SE visible
16 Jun 5.9 00:25:04 10° W 00:25:22 11° W 00:25:22 11° W visible
16 Jun 4.7 20:58:42 10° WNW 21:02:40 43° NNE 21:06:37 10° E visible
16 Jun 3.5 22:38:15 10° WNW 22:42:21 64° SW 22:42:56 56° S visible
17 Jun 4.5 20:52:23 10° WNW 20:56:24 48° NNE 21:00:25 10° E visible
17 Jun 3.8 22:31:58 10° WNW 22:35:59 50° SW 22:36:10 50° SSW visible
18 Jun 4.2 20:46:04 10° WNW 20:50:08 55° NNE 20:53:57 11° E visible
18 Jun 4.2 22:25:43 10° WNW 22:29:30 39° SW 22:29:30 39° SW visible
19 Jun 3.9 20:39:43 10° WNW 20:43:50 64° NNE 20:47:21 14° ESE visible
19 Jun 4.6 22:19:30 10° WNW 22:22:55 30° SW 22:22:55 30° SW visible
20 Jun 3.7 20:33:22 10° WNW 20:37:31 77° NNE 20:40:49 16° ESE visible
20 Jun 5.0 22:13:21 10° W 22:16:23 24° SW 22:16:23 24° SW visible
21 Jun 3.6 20:27:01 10° WNW 20:31:10 88° SSW 20:34:20 17° ESE visible
21 Jun 5.4 22:07:18 10° W 22:09:54 19° SW 22:09:54 19° SW visible
22 Jun 3.6 20:20:40 10° WNW 20:24:48 72° SSW 20:27:54 17° SE visible
22 Jun 5.7 22:01:27 10° W 22:03:28 14° SW 22:03:28 14° SW visible
23 Jun 3.9 20:14:20 10° WNW 20:18:23 57° SW 20:21:31 16° SE visible
23 Jun 6.0 21:56:11 10° WSW 21:57:05 11° SW 21:57:05 11° SW visible
24 Jun 4.2 20:08:01 10° WNW 20:11:58 45° SW 20:15:10 15° SSE visible
